{"data":{"norad_id":68559,"epoch":"2026-09-19T06:56:32.150400Z","epoch_age_seconds":149854,"freshness":"FRESH","line1":"1 68559U 26070T   26262.28926100  .00014277  00000+0  43269-3 0  9991","line2":"2 68559  53.1578 179.2203 0001231 102.3958 257.7183 15.34412432 26250","mean_motion":15.34412432,"eccentricity":0.0001231,"inclination_deg":53.1578,"raan_deg":179.2203,"arg_perigee_deg":102.3958,"mean_anomaly_deg":257.7183,"bstar":0.00043269,"rev_number":2625,"period_min":93.846997715149,"perigee_km":461.82418704767,"apogee_km":463.50839281765,"semimajor_km":6840.8032899327,"source":"CELESTRAK","updated_at":"2026-09-20T09:00:43.936484Z"}}